DW2465 Weather Reports


Display with metric or nautical units.
time (UTC)temp
F
wind
direction
speed
MPH
gust
MPH
rain 1hr
in
rain 24hr
in
rain mn
in
humidity
%
barometer
mb
20210420030125 35 360 0.0 2.0 0.00 0.00 0.00 52 1019.0
20210420024640 35 355 0.0 0.0 0.00 0.00 0.00 51 1018.9
20210420023156 36 355 0.0 0.0 0.00 0.00 0.00 50 1018.9
20210420021603 36 30 0.0 4.0 0.00 0.00 0.00 49 1018.7
20210420020155 36 350 0.0 1.0 0.00 0.00 0.00 48 1018.6
20210420014634 36 304 0.0 2.0 0.00 0.00 0.00 46 1018.4
20210420013126 36 287 0.0 1.0 0.00 0.00 0.00 45 1018.4
20210420011624 36 294 0.0 0.0 0.00 0.00 0.00 45 1018.2
20210420010158 37 305 0.0 3.0 0.00 0.00 0.00 46 1018.0
20210420004607 37 326 0.0 1.0 0.00 0.00 0.00 46 1017.9
20210420003122 37 329 0.0 10.0 0.00 0.00 0.00 45 1017.8
20210420001628 37 319 0.0 13.0 0.00 0.00 0.00 46 1017.7
20210420000136 37 273 0.0 10.0 0.00 0.01 0.00 46 1017.8
20210419234558 37 311 3.0 13.0 0.00 0.01 0.00 45 1017.5
20210419233134 37 310 2.0 14.0 0.00 0.01 0.00 46 1017.6
20210419231609 37 271 4.0 10.0 0.00 0.01 0.00 46 1017.4
20210419230056 37 302 0.0 8.0 0.00 0.01 0.00 47 1017.4
20210419224914 37 326 4.0 15.0 0.00 0.01 0.00 46 1017.3
20210419223035 37 334 1.0 12.0 0.00 0.01 0.00 46 1017.2
20210419221528 37 317 5.0 16.0 0.00 0.01 0.00 46 1017.0
20210419220046 37 325 3.0 15.0 0.00 0.01 0.00 47 1017.0
20210419214524 37 265 5.0 13.0 0.00 0.01 0.00 48 1017.0
20210419213044 36 259 5.0 18.0 0.00 0.01 0.00 49 1016.8
20210419211532 37 340 1.0 12.0 0.00 0.01 0.00 48 1016.6
20210419210109 37 297 4.0 17.0 0.00 0.01 0.00 50 1016.8
20210419204521 36 317 6.0 16.0 0.00 0.01 0.00 52 1016.7
20210419203031 36 271 3.0 15.0 0.00 0.01 0.00 49 1016.8
20210419201523 36 291 7.0 16.0 0.00 0.01 0.00 49 1016.8
20210419200031 36 342 1.0 17.0 0.00 0.01 0.00 53 1016.7
20210419194522 36 299 8.0 16.0 0.00 0.01 0.00 50 1016.5
20210419193011 36 295 4.0 15.0 0.00 0.01 0.00 52 1016.5
20210419191648 35 9 3.0 16.0 0.00 0.01 0.00 51 1016.4
20210419190129 35 360 9.0 18.0 0.00 0.01 0.00 53 1016.5
20210419184644 35 326 7.0 19.0 0.00 0.01 0.00 54 1016.6
20210419183124 35 333 5.0 19.0 0.00 0.01 0.00 53 1016.4
20210419181621 35 336 3.0 17.0 0.00 0.01 0.00 56 1016.5
20210419180106 35 346 1.0 11.0 0.00 0.01 0.00 57 1016.4
20210419174723 34 343 2.0 14.0 0.00 0.01 0.00 58 1016.6
20210419173129 34 271 7.0 20.0 0.00 0.01 0.00 57 1016.5
20210419171623 34 319 3.0 16.0 0.00 0.01 0.00 59 1016.6
20210419170135 34 306 5.0 16.0 0.00 0.01 0.00 59 1016.6
20210419164659 34 321 2.0 19.0 0.00 0.01 0.00 60 1016.6
20210419163114 33 297 2.0 21.0 0.00 0.01 0.00 61 1016.5
20210419161638 33 279 6.0 16.0 0.00 0.01 0.00 61 1016.4
20210419160021 33 360 6.0 19.0 0.00 0.01 0.00 64 1016.3
20210419154524 33 261 7.0 24.0 0.00 0.01 0.00 65 1016.2
20210419153023 33 281 11.0 23.0 0.00 0.01 0.00 64 1016.0
20210419151516 32 313 5.0 19.0 0.00 0.01 0.00 68 1016.2
20210419150034 31 312 7.0 21.0 0.00 0.01 0.00 69 1016.2
20210419144535 31 271 12.0 18.0 0.00 0.01 0.00 70 1016.0
20210419143158 31 285 8.0 16.0 0.00 0.01 0.00 71 1016.0
20210419141645 31 273 7.0 20.0 0.00 0.01 0.00 70 1015.9
20210419140243 31 294 4.0 19.0 0.00 0.01 0.00 70 1015.8
20210419134641 31 333 12.0 24.0 0.00 0.01 0.00 69 1015.6
20210419133038 31 311 5.0 17.0 0.00 0.01 0.00 71 1015.8
20210419131601 31 348 6.0 15.0 0.00 0.01 0.00 71 1015.8
20210419130110 31 299 5.0 16.0 0.00 0.01 0.00 71 1015.6
20210419124637 31 329 11.0 17.0 0.00 0.01 0.00 71 1015.5
20210419123212 31 284 6.0 16.0 0.00 0.01 0.00 72 1015.2
20210419121600 31 316 7.0 18.0 0.00 0.01 0.00 72 1015.0
20210419120102 31 318 4.0 17.0 0.00 0.01 0.00 72 1015.2
20210419114636 31 310 4.0 16.0 0.00 0.01 0.00 72 1014.9
20210419113104 31 313 3.0 13.0 0.00 0.01 0.00 72 1014.7
20210419111543 31 304 8.0 16.0 0.00 0.01 0.00 71 1014.6
20210419110102 32 286 3.0 18.0 0.00 0.01 0.00 71 1014.7
20210419104553 32 291 4.0 17.0 0.00 0.01 0.00 71 1014.3
20210419103052 32 360 6.0 17.0 0.00 0.01 0.00 71 1014.1
20210419101528 32 300 0.0 17.0 0.00 0.01 0.00 70 1014.5
20210419100019 32 286 3.0 15.0 0.00 0.01 0.00 70 1014.4
20210419094519 32 313 10.0 18.0 0.00 0.01 0.00 70 1014.2
20210419093049 32 302 7.0 18.0 0.00 0.01 0.00 69 1014.2
20210419091549 32 286 4.0 19.0 0.00 0.01 0.00 70 1014.2
20210419090054 32 273 7.0 18.0 0.00 0.01 0.00 69 1014.0
20210419083101 32 304 6.0 22.0 0.00 0.01 0.00 70 1013.9
20210419081547 33 339 5.0 15.0 0.00 0.01 0.00 71 1013.7
20210419080042 34 323 8.0 19.0 0.00 0.01 0.00 71 1013.3
20210419074521 35 350 8.0 19.0 0.00 0.01 0.00 71 1013.2
20210419073034 35 355 8.0 16.0 0.00 0.01 0.00 73 1013.1
20210419071515 35 306 6.0 17.0 0.00 0.01 0.00 77 1013.1
20210419070031 35 279 12.0 18.0 0.00 0.01 0.00 78 1013.1
20210419064835 35 332 3.0 14.0 0.00 0.01 0.00 77 1012.9
20210419064515 35 281 3.0 14.0 0.00 0.01 0.00 77 1012.9
20210419063127 36 286 6.0 18.0 0.00 0.01 0.00 75 1013.0
20210419061645 36 278 4.0 18.0 0.00 0.01 0.00 76 1013.0
20210419060200 37 268 15.0 22.0 0.00 0.01 0.00 76 1012.9
20210419054529 37 360 2.0 16.0 0.00 0.01 0.00 77 1012.7
20210419053034 37 360 4.0 16.0 0.00 0.01 0.00 78 1012.7
20210419051519 38 286 8.0 18.0 0.00 0.01 0.00 76 1012.5
20210419050034 39 279 4.0 18.0 0.00 0.01 0.01 74 1012.5
20210419044512 39 13 2.0 17.0 0.00 0.01 0.01 71 1012.3
20210419043104 40 317 5.0 14.0 0.00 0.01 0.01 72 1012.3
20210419041552 40 317 4.0 15.0 0.00 0.01 0.01 72 1012.1
20210419040116 40 326 6.0 13.0 0.00 0.01 0.01 72 1012.2
20210419034559 40 306 1.0 15.0 0.00 0.01 0.01 71 1012.3
20210419033835 40 351 2.0 10.0 0.00 0.01 0.01 71 1012.2
20210419031618 40 328 0.0 12.0 0.00 0.01 0.01 69 1011.9